Time,TemperatureF,DewpointF,PressureIn,WindDirection,WindDirectionDegrees,WindSpeedMPH,WindSpeedGustMPH,Humidity,HourlyPrecipIn,Conditions,Clouds,dailyrainin,SoftwareType,DateUTC
2013-02-25 00:01:00,40.9,29.7,30.14,East,83,4.0,4.0,64,0.00,,,0.00,Wunderground v.1.15,2013-02-25 08:01:00,
2013-02-25 00:10:00,40.8,29.9,30.14,East,83,3.0,3.0,65,0.00,,,0.00,Wunderground v.1.15,2013-02-25 08:10:00,
2013-02-25 00:20:00,40.6,30.1,30.14,East,83,2.0,2.0,66,0.00,,,0.00,Wunderground v.1.15,2013-02-25 08:20:00,
2013-02-25 00:30:00,40.5,30.0,30.15,East,85,3.0,3.0,66,0.00,,,0.00,Wunderground v.1.15,2013-02-25 08:30:00,
2013-02-25 00:40:00,40.2,30.1,30.15,East,86,4.0,6.0,67,0.00,,,0.00,Wunderground v.1.15,2013-02-25 08:40:00,
2013-02-25 00:50:00,39.9,30.2,30.14,East,88,4.0,4.0,68,0.00,,,0.00,Wunderground v.1.15,2013-02-25 08:50:00,
2013-02-25 01:00:00,40.1,30.4,30.14,East,88,3.0,3.0,68,0.00,,,0.00,Wunderground v.1.15,2013-02-25 09:00:00,
2013-02-25 01:10:00,40.3,30.6,30.14,East,88,2.0,2.0,68,0.00,,,0.00,Wunderground v.1.15,2013-02-25 09:10:00,
2013-02-25 01:20:00,40.5,30.4,30.15,East,88,1.0,3.0,67,0.00,,,0.00,Wunderground v.1.15,2013-02-25 09:20:00,
2013-02-25 01:30:00,40.5,30.4,30.15,East,88,3.0,3.0,67,0.00,,,0.00,Wunderground v.1.15,2013-02-25 09:30:00,
2013-02-25 01:40:00,40.5,30.8,30.15,East,88,3.0,3.0,68,0.00,,,0.00,Wunderground v.1.15,2013-02-25 09:40:00,
2013-02-25 01:50:00,40.3,30.6,30.15,East,88,2.0,2.0,68,0.00,,,0.00,Wunderground v.1.15,2013-02-25 09:50:00,
2013-02-25 02:00:00,40.3,30.6,30.14,East,88,4.0,4.0,68,0.00,,,0.00,Wunderground v.1.15,2013-02-25 10:00:00,
2013-02-25 02:10:00,40.6,30.9,30.14,East,88,4.0,5.0,68,0.00,,,0.00,Wunderground v.1.15,2013-02-25 10:10:00,
2013-02-25 02:20:00,40.8,30.7,30.15,East,88,2.0,4.0,67,0.00,,,0.00,Wunderground v.1.15,2013-02-25 10:20:00,
2013-02-25 02:30:00,40.8,31.1,30.15,East,88,0.0,0.0,68,0.00,,,0.00,Wunderground v.1.15,2013-02-25 10:30:00,
2013-02-25 02:40:00,40.6,30.9,30.15,East,88,0.0,0.0,68,0.00,,,0.00,Wunderground v.1.15,2013-02-25 10:40:00,
2013-02-25 02:50:00,40.3,30.6,30.16,East,88,0.0,0.0,68,0.00,,,0.00,Wunderground v.1.15,2013-02-25 10:50:00,
2013-02-25 03:01:00,40.1,30.7,30.15,East,88,2.0,3.0,69,0.00,,,0.00,Wunderground v.1.15,2013-02-25 11:01:00,
2013-02-25 03:10:00,39.8,30.5,30.15,East,88,3.0,3.0,69,0.00,,,0.00,Wunderground v.1.15,2013-02-25 11:10:00,
2013-02-25 03:20:00,39.8,30.5,30.15,East,88,3.0,3.0,69,0.00,,,0.00,Wunderground v.1.15,2013-02-25 11:20:00,
2013-02-25 03:30:00,39.9,30.5,30.15,East,88,2.0,2.0,69,0.00,,,0.00,Wunderground v.1.15,2013-02-25 11:30:00,
2013-02-25 03:40:00,39.8,30.5,30.15,East,88,0.0,0.0,69,0.00,,,0.00,Wunderground v.1.15,2013-02-25 11:40:00,
2013-02-25 03:50:00,39.6,30.3,30.16,East,88,0.0,0.0,69,0.00,,,0.00,Wunderground v.1.15,2013-02-25 11:50:00,
2013-02-25 04:00:00,39.5,30.2,30.15,East,88,0.0,0.0,69,0.00,,,0.00,Wunderground v.1.15,2013-02-25 12:00:00,
2013-02-25 04:10:00,39.1,29.8,30.15,East,88,0.0,0.0,69,0.00,,,0.00,Wunderground v.1.15,2013-02-25 12:10:00,
2013-02-25 04:20:00,38.8,29.8,30.15,East,88,0.0,0.0,70,0.00,,,0.00,Wunderground v.1.15,2013-02-25 12:20:00,
2013-02-25 04:30:00,38.5,29.9,30.14,East,88,0.0,0.0,71,0.00,,,0.00,Wunderground v.1.15,2013-02-25 12:30:00,
2013-02-25 04:40:00,38.2,30.0,30.14,East,88,0.0,0.0,72,0.00,,,0.00,Wunderground v.1.15,2013-02-25 12:40:00,
2013-02-25 04:50:00,38.0,29.8,30.15,East,88,0.0,0.0,72,0.00,,,0.00,Wunderground v.1.15,2013-02-25 12:50:00,
2013-02-25 05:00:00,37.9,29.7,30.14,East,88,0.0,0.0,72,0.00,,,0.00,Wunderground v.1.15,2013-02-25 13:00:00,
2013-02-25 05:10:00,37.8,29.9,30.14,East,88,0.0,1.0,73,0.00,,,0.00,Wunderground v.1.15,2013-02-25 13:10:00,
2013-02-25 05:20:00,37.6,30.1,30.13,East,88,2.0,2.0,74,0.00,,,0.00,Wunderground v.1.15,2013-02-25 13:20:00,
2013-02-25 05:30:00,37.8,30.6,30.15,East,88,0.0,0.0,75,0.00,,,0.00,Wunderground v.1.15,2013-02-25 13:30:00,
2013-02-25 05:40:00,38.0,30.8,30.15,East,88,0.0,0.0,75,0.00,,,0.00,Wunderground v.1.15,2013-02-25 13:40:00,
2013-02-25 05:50:00,38.0,30.8,30.14,East,88,0.0,0.0,75,0.00,,,0.00,Wunderground v.1.15,2013-02-25 13:50:00,
2013-02-25 06:01:00,38.0,30.4,30.13,East,88,0.0,2.0,74,0.00,,,0.00,Wunderground v.1.15,2013-02-25 14:01:00,
2013-02-25 06:10:00,38.8,30.9,30.13,ESE,120,3.0,3.0,73,0.00,,,0.00,Wunderground v.1.15,2013-02-25 14:10:00,
2013-02-25 06:20:00,38.8,30.9,30.13,ESE,120,1.0,1.0,73,0.00,,,0.00,Wunderground v.1.15,2013-02-25 14:20:00,
2013-02-25 06:30:00,38.5,30.6,30.14,ESE,120,1.0,1.0,73,0.00,,,0.00,Wunderground v.1.15,2013-02-25 14:30:00,
2013-02-25 06:40:00,38.2,30.3,30.14,ESE,120,0.0,0.0,73,0.00,,,0.00,Wunderground v.1.15,2013-02-25 14:40:00,
2013-02-25 06:50:00,37.6,29.7,30.15,ESE,120,0.0,0.0,73,0.00,,,0.00,Wunderground v.1.15,2013-02-25 14:50:00,
2013-02-25 07:00:00,37.0,29.8,30.17,ESE,120,0.0,0.0,75,0.00,,,0.00,Wunderground v.1.15,2013-02-25 15:00:00,
2013-02-25 07:10:00,36.9,30.4,30.17,ESE,120,0.0,0.0,77,0.00,,,0.00,Wunderground v.1.15,2013-02-25 15:10:00,
2013-02-25 07:20:00,37.0,30.5,30.18,ESE,120,0.0,0.0,77,0.00,,,0.00,Wunderground v.1.15,2013-02-25 15:20:00,
2013-02-25 07:30:00,37.8,31.6,30.18,ESE,120,0.0,0.0,78,0.00,,,0.00,Wunderground v.1.15,2013-02-25 15:30:00,
2013-02-25 07:40:00,38.5,32.2,30.18,ESE,120,0.0,0.0,78,0.00,,,0.00,Wunderground v.1.15,2013-02-25 15:40:00,
2013-02-25 07:50:00,40.9,33.9,30.18,ESE,120,0.0,0.0,76,0.00,,,0.00,Wunderground v.1.15,2013-02-25 15:50:00,
2013-02-25 08:01:00,42.1,34.4,30.17,ESE,120,0.0,0.0,74,0.00,,,0.00,Wunderground v.1.15,2013-02-25 16:01:00,
2013-02-25 08:10:00,42.2,34.2,30.17,SE,128,0.0,0.0,73,0.00,,,0.00,Wunderground v.1.15,2013-02-25 16:10:00,
2013-02-25 08:20:00,42.8,34.7,30.18,SE,128,0.0,0.0,73,0.00,,,0.00,Wunderground v.1.15,2013-02-25 16:20:00,
2013-02-25 08:30:00,43.6,35.2,30.18,SE,128,0.0,3.0,72,0.00,,,0.00,Wunderground v.1.15,2013-02-25 16:30:00,
2013-02-25 08:40:00,44.3,35.5,30.18,SE,130,0.0,2.0,71,0.00,,,0.00,Wunderground v.1.15,2013-02-25 16:40:00,
2013-02-25 08:50:00,45.7,36.1,30.18,SE,130,0.0,0.0,69,0.00,,,0.00,Wunderground v.1.15,2013-02-25 16:50:00,
2013-02-25 09:00:00,47.3,37.3,30.17,SE,130,0.0,0.0,68,0.00,,,0.00,Wunderground v.1.15,2013-02-25 17:00:00,
2013-02-25 09:10:00,48.8,36.4,30.17,SE,130,0.0,2.0,62,0.00,,,0.00,Wunderground v.1.15,2013-02-25 17:10:00,
2013-02-25 09:20:00,49.9,37.4,30.17,SE,130,1.0,2.0,62,0.00,,,0.00,Wunderground v.1.15,2013-02-25 17:20:00,
2013-02-25 09:30:00,51.0,38.0,30.16,SE,130,1.0,2.0,61,0.00,,,0.00,Wunderground v.1.15,2013-02-25 17:30:00,
2013-02-25 09:40:00,51.6,38.6,30.16,SE,130,2.0,2.0,61,0.00,,,0.00,Wunderground v.1.15,2013-02-25 17:40:00,
2013-02-25 09:50:00,52.2,38.3,30.16,SE,130,1.0,1.0,59,0.00,,,0.00,Wunderground v.1.15,2013-02-25 17:50:00,
2013-02-25 10:01:00,52.6,38.2,30.15,SE,133,1.0,1.0,58,0.00,,,0.00,Wunderground v.1.15,2013-02-25 18:01:00,
2013-02-25 10:10:00,53.8,38.5,30.15,SE,134,2.0,2.0,56,0.00,,,0.00,Wunderground v.1.15,2013-02-25 18:10:00,
2013-02-25 10:20:00,53.9,37.1,30.15,SE,143,2.0,2.0,53,0.00,,,0.00,Wunderground v.1.15,2013-02-25 18:20:00,
2013-02-25 10:30:00,54.2,36.9,30.15,SSW,193,3.0,3.0,52,0.00,,,0.00,Wunderground v.1.15,2013-02-25 18:30:00,
2013-02-25 10:40:00,54.1,37.3,30.15,South,181,2.0,2.0,53,0.00,,,0.00,Wunderground v.1.15,2013-02-25 18:40:00,
2013-02-25 10:50:00,55.3,38.4,30.15,South,184,1.0,4.0,53,0.00,,,0.00,Wunderground v.1.15,2013-02-25 18:50:00,
2013-02-25 11:01:00,55.7,36.8,30.15,SSW,192,2.0,7.0,49,0.00,,,0.00,Wunderground v.1.15,2013-02-25 19:01:00,
2013-02-25 11:10:00,55.9,35.9,30.15,SSW,200,2.0,2.0,47,0.00,,,0.00,Wunderground v.1.15,2013-02-25 19:10:00,
2013-02-25 11:20:00,56.9,35.2,30.14,SSW,200,0.0,3.0,44,0.00,,,0.00,Wunderground v.1.15,2013-02-25 19:20:00,
2013-02-25 11:30:00,56.9,35.2,30.14,SSW,200,1.0,1.0,44,0.00,,,0.00,Wunderground v.1.15,2013-02-25 19:30:00,
2013-02-25 11:40:00,57.0,35.3,30.14,SSW,200,2.0,2.0,44,0.00,,,0.00,Wunderground v.1.15,2013-02-25 19:40:00,
2013-02-25 11:50:00,57.3,35.6,30.13,SSW,200,2.0,5.0,44,0.00,,,0.00,Wunderground v.1.15,2013-02-25 19:50:00,
2013-02-25 12:00:00,58.3,36.5,30.13,SSW,208,2.0,8.0,44,0.00,,,0.00,Wunderground v.1.15,2013-02-25 20:00:00,
2013-02-25 12:10:00,58.1,34.5,30.13,SSW,206,2.0,2.0,41,0.00,,,0.00,Wunderground v.1.15,2013-02-25 20:10:00,
2013-02-25 12:20:00,58.7,35.7,30.13,SSW,208,2.0,4.0,42,0.00,,,0.00,Wunderground v.1.15,2013-02-25 20:20:00,
2013-02-25 12:30:00,58.9,35.2,30.12,SSW,206,3.0,3.0,41,0.00,,,0.00,Wunderground v.1.15,2013-02-25 20:30:00,
2013-02-25 12:40:00,60.5,36.0,30.12,SSW,209,3.0,3.0,40,0.00,,,0.00,Wunderground v.1.15,2013-02-25 20:40:00,
2013-02-25 12:50:00,61.6,35.7,30.12,SW,220,2.0,2.0,38,0.00,,,0.00,Wunderground v.1.15,2013-02-25 20:50:00,
2013-02-25 13:01:00,63.9,37.1,30.12,SW,222,1.0,3.0,37,0.00,,,0.00,Wunderground v.1.15,2013-02-25 21:01:00,
2013-02-25 13:10:00,62.6,36.6,30.12,SW,222,2.0,4.0,38,0.00,,,0.00,Wunderground v.1.15,2013-02-25 21:10:00,
2013-02-25 13:20:00,62.4,34.4,30.11,SW,222,2.0,2.0,35,0.00,,,0.00,Wunderground v.1.15,2013-02-25 21:20:00,
2013-02-25 13:30:00,63.9,36.4,30.10,SW,232,2.0,2.0,36,0.00,,,0.00,Wunderground v.1.15,2013-02-25 21:30:00,
2013-02-25 13:40:00,67.1,35.4,30.10,West,263,1.0,1.0,31,0.00,,,0.00,Wunderground v.1.15,2013-02-25 21:40:00,
2013-02-25 13:50:00,64.8,35.0,30.11,West,264,1.0,6.0,33,0.00,,,0.00,Wunderground v.1.15,2013-02-25 21:50:00,
2013-02-25 14:00:00,66.1,36.1,30.11,West,267,1.0,1.0,33,0.00,,,0.00,Wunderground v.1.15,2013-02-25 22:00:00,
2013-02-25 14:10:00,67.4,33.1,30.11,WNW,285,2.0,2.0,28,0.00,,,0.00,Wunderground v.1.15,2013-02-25 22:10:00,
2013-02-25 14:20:00,66.6,35.0,30.10,WNW,291,3.0,6.0,31,0.00,,,0.00,Wunderground v.1.15,2013-02-25 22:20:00,
2013-02-25 14:30:00,67.3,33.1,30.10,WNW,294,2.0,2.0,28,0.00,,,0.00,Wunderground v.1.15,2013-02-25 22:30:00,
2013-02-25 14:40:00,68.4,34.0,30.10,WNW,298,2.0,2.0,28,0.00,,,0.00,Wunderground v.1.15,2013-02-25 22:40:00,
2013-02-25 14:50:00,66.6,34.2,30.10,WNW,301,3.0,3.0,30,0.00,,,0.00,Wunderground v.1.15,2013-02-25 22:50:00,
2013-02-25 15:00:00,67.4,36.5,30.10,WNW,302,2.0,5.0,32,0.00,,,0.00,Wunderground v.1.15,2013-02-25 23:00:00,
2013-02-25 15:10:00,67.1,33.8,30.10,NW,305,2.0,2.0,29,0.00,,,0.00,Wunderground v.1.15,2013-02-25 23:10:00,
2013-02-25 15:20:00,67.4,33.1,30.10,NW,305,2.0,2.0,28,0.00,,,0.00,Wunderground v.1.15,2013-02-25 23:20:00,
2013-02-25 15:30:00,66.6,32.5,30.09,NW,305,4.0,4.0,28,0.00,,,0.00,Wunderground v.1.15,2013-02-25 23:30:00,
2013-02-25 15:40:00,66.9,33.6,30.09,NW,305,2.0,8.0,29,0.00,,,0.00,Wunderground v.1.15,2013-02-25 23:40:00,
2013-02-25 15:50:00,66.4,34.8,30.09,NW,306,4.0,4.0,31,0.00,,,0.00,Wunderground v.1.15,2013-02-25 23:50:00,
2013-02-25 16:01:00,66.4,35.6,30.09,NW,308,3.0,3.0,32,0.00,,,0.00,Wunderground v.1.15,2013-02-26 00:01:00,
2013-02-25 16:10:00,66.4,33.2,30.09,NW,308,3.0,6.0,29,0.00,,,0.00,Wunderground v.1.15,2013-02-26 00:10:00,
2013-02-25 16:20:00,66.3,31.3,30.08,NW,309,3.0,4.0,27,0.00,,,0.00,Wunderground v.1.15,2013-02-26 00:20:00,
2013-02-25 16:30:00,66.0,31.9,30.08,NW,309,3.0,3.0,28,0.00,,,0.00,Wunderground v.1.15,2013-02-26 00:30:00,
2013-02-25 16:40:00,65.6,30.7,30.08,NW,309,4.0,4.0,27,0.00,,,0.00,Wunderground v.1.15,2013-02-26 00:40:00,
2013-02-25 16:50:00,65.2,30.3,30.08,NW,308,3.0,6.0,27,0.00,,,0.00,Wunderground v.1.15,2013-02-26 00:50:00,
2013-02-25 17:00:00,64.7,29.9,30.07,NW,309,3.0,3.0,27,0.00,,,0.00,Wunderground v.1.15,2013-02-26 01:00:00,
2013-02-25 17:10:00,64.3,29.6,30.07,NW,309,3.0,3.0,27,0.00,,,0.00,Wunderground v.1.15,2013-02-26 01:10:00,
2013-02-25 17:20:00,63.7,28.1,30.07,NW,309,3.0,6.0,26,0.00,,,0.00,Wunderground v.1.15,2013-02-26 01:20:00,
2013-02-25 17:30:00,62.7,28.2,30.07,NW,309,4.0,4.0,27,0.00,,,0.00,Wunderground v.1.15,2013-02-26 01:30:00,
2013-02-25 17:40:00,61.8,27.4,30.07,NW,309,1.0,1.0,27,0.00,,,0.00,Wunderground v.1.15,2013-02-26 01:40:00,
2013-02-25 17:50:00,61.2,27.8,30.07,NW,309,0.0,0.0,28,0.00,,,0.00,Wunderground v.1.15,2013-02-26 01:50:00,
2013-02-25 18:01:00,60.5,28.1,30.07,NW,309,0.0,0.0,29,0.00,,,0.00,Wunderground v.1.15,2013-02-26 02:01:00,
2013-02-25 18:10:00,59.9,27.5,30.07,NW,309,0.0,0.0,29,0.00,,,0.00,Wunderground v.1.15,2013-02-26 02:10:00,
2013-02-25 18:20:00,59.0,28.4,30.07,NW,309,0.0,0.0,31,0.00,,,0.00,Wunderground v.1.15,2013-02-26 02:20:00,
2013-02-25 18:30:00,58.1,28.4,30.07,NW,309,0.0,0.0,32,0.00,,,0.00,Wunderground v.1.15,2013-02-26 02:30:00,
2013-02-25 18:40:00,57.3,28.4,30.07,NW,309,0.0,0.0,33,0.00,,,0.00,Wunderground v.1.15,2013-02-26 02:40:00,
2013-02-25 18:50:00,56.3,29.7,30.08,NW,309,0.0,0.0,36,0.00,,,0.00,Wunderground v.1.15,2013-02-26 02:50:00,
2013-02-25 19:00:00,54.8,29.7,30.08,NW,309,0.0,0.0,38,0.00,,,0.00,Wunderground v.1.15,2013-02-26 03:00:00,
2013-02-25 19:10:00,53.6,29.2,30.08,NW,309,0.0,0.0,39,0.00,,,0.00,Wunderground v.1.15,2013-02-26 03:10:00,
2013-02-25 19:20:00,52.6,29.5,30.08,NW,309,0.0,0.0,41,0.00,,,0.00,Wunderground v.1.15,2013-02-26 03:20:00,
2013-02-25 19:30:00,51.6,30.4,30.08,NW,309,0.0,0.0,44,0.00,,,0.00,Wunderground v.1.15,2013-02-26 03:30:00,
2013-02-25 19:40:00,50.5,29.9,30.08,NW,309,0.0,0.0,45,0.00,,,0.00,Wunderground v.1.15,2013-02-26 03:40:00,
2013-02-25 19:50:00,49.8,30.4,30.08,NW,309,0.0,0.0,47,0.00,,,0.00,Wunderground v.1.15,2013-02-26 03:50:00,
2013-02-25 20:00:00,49.1,29.2,30.08,NW,309,0.0,0.0,46,0.00,,,0.00,Wunderground v.1.15,2013-02-26 04:00:00,
2013-02-25 20:10:00,48.6,29.3,30.08,NW,309,0.0,0.0,47,0.00,,,0.00,Wunderground v.1.15,2013-02-26 04:10:00,
2013-02-25 20:20:00,48.0,29.2,30.08,NW,309,0.0,0.0,48,0.00,,,0.00,Wunderground v.1.15,2013-02-26 04:20:00,
2013-02-25 20:30:00,47.4,29.2,30.08,NW,309,0.0,0.0,49,0.00,,,0.00,Wunderground v.1.15,2013-02-26 04:30:00,
2013-02-25 20:40:00,46.8,30.1,30.08,NW,309,0.0,0.0,52,0.00,,,0.00,Wunderground v.1.15,2013-02-26 04:40:00,
2013-02-25 20:50:00,46.2,30.0,30.09,NW,309,0.0,0.0,53,0.00,,,0.00,Wunderground v.1.15,2013-02-26 04:50:00,
2013-02-25 21:01:00,45.8,30.1,30.09,NW,309,0.0,0.0,54,0.00,,,0.00,Wunderground v.1.15,2013-02-26 05:01:00,
2013-02-25 21:10:00,45.5,30.7,30.09,NW,309,0.0,0.0,56,0.00,,,0.00,Wunderground v.1.15,2013-02-26 05:10:00,
2013-02-25 21:20:00,45.4,30.6,30.09,NW,309,0.0,0.0,56,0.00,,,0.00,Wunderground v.1.15,2013-02-26 05:20:00,
2013-02-25 21:30:00,45.1,30.3,30.09,NW,309,0.0,0.0,56,0.00,,,0.00,Wunderground v.1.15,2013-02-26 05:30:00,
2013-02-25 21:40:00,44.9,30.1,30.09,NW,309,0.0,0.0,56,0.00,,,0.00,Wunderground v.1.15,2013-02-26 05:40:00,
2013-02-25 21:50:00,44.6,30.3,30.09,NW,309,0.0,0.0,57,0.00,,,0.00,Wunderground v.1.15,2013-02-26 05:50:00,
2013-02-25 22:00:00,44.5,30.6,30.09,NW,309,0.0,0.0,58,0.00,,,0.00,Wunderground v.1.15,2013-02-26 06:00:00,
2013-02-25 22:10:00,44.5,31.1,30.09,NW,309,0.0,0.0,59,0.00,,,0.00,Wunderground v.1.15,2013-02-26 06:10:00,
2013-02-25 22:20:00,45.1,31.6,30.08,NW,309,0.0,0.0,59,0.00,,,0.00,Wunderground v.1.15,2013-02-26 06:20:00,
2013-02-25 22:30:00,45.8,31.9,30.08,NW,309,0.0,0.0,58,0.00,,,0.00,Wunderground v.1.15,2013-02-26 06:30:00,
2013-02-25 22:40:00,46.5,32.1,30.08,NW,309,0.0,1.0,57,0.00,,,0.00,Wunderground v.1.15,2013-02-26 06:40:00,
2013-02-25 22:50:00,47.0,32.1,30.09,NW,309,0.0,1.0,56,0.00,,,0.00,Wunderground v.1.15,2013-02-26 06:50:00,
2013-02-25 23:00:00,47.0,32.1,30.09,NW,309,0.0,0.0,56,0.00,,,0.00,Wunderground v.1.15,2013-02-26 07:00:00,
2013-02-25 23:10:00,46.8,31.9,30.09,NW,309,0.0,0.0,56,0.00,,,0.00,Wunderground v.1.15,2013-02-26 07:10:00,
2013-02-25 23:20:00,46.4,32.0,30.09,NW,309,0.0,0.0,57,0.00,,,0.00,Wunderground v.1.15,2013-02-26 07:20:00,
2013-02-25 23:30:00,45.8,31.4,30.10,NW,309,0.0,0.0,57,0.00,,,0.00,Wunderground v.1.15,2013-02-26 07:30:00,
2013-02-25 23:40:00,44.3,30.4,30.10,NW,309,0.0,0.0,58,0.00,,,0.00,Wunderground v.1.15,2013-02-26 07:40:00,
2013-02-25 23:50:00,43.5,29.7,30.09,NW,309,0.0,0.0,58,0.00,,,0.00,Wunderground v.1.15,2013-02-26 07:50:00,